Regional Weather Roundup
Issued by NWS

Current Version | Previous Version | Text Only | Print | Product List | Glossary On
Versions: 1 2 3 4 5 6 7 8 9 10 11 12 13 14 15 16 17 18 19 20 21 22 23 24 25 26 27 28 29 30 31 32 33 34 35 36 37 38 39 40 41 42 43 44 45 46 47 48 49 50
000
ASUS44 KFWD 032315
RWRTX
NORTH TEXAS HOURLY WEATHER ROUNDUP
NATIONAL WEATHER SERVICE FORT WORTH TX
500 PM CST SAT DEC 03 2016

NOTE: "FAIR" INDICATES FEW OR NO CLOUDS BELOW 12,000 FEET WITH NO
SIGNIFICANT WEATHER AND/OR OBSTRUCTIONS TO VISIBILITY.

TXZ118-119-040000-
DALLAS/FORT WORTH METROPLEX

CITY           SKY/WX    TMP DP  RH WIND       PRES   REMARKS
DFW AIRPORT    DRIZZLE   50  47  89 NE8       29.98F FOG
DALLAS LOVE    DRIZZLE   50  48  93 NE8       30.00S FOG
FTW MEACHAM    CLOUDY    50  47  89 E6        29.99R
DAL-EXECUTIVE  CLOUDY    49  48  97 E8        29.97R FOG
FTW-ALLIANCE   DRIZZLE   49  47  93 NE5       29.99R FOG
FTW-NAS-JRB    CLOUDY    50  49  96 NE6       29.99R
FTW-SPINKS     CLOUDY    50  48  93 NE3       29.99R FOG
ARLINGTON      CLOUDY    50  48  93 NE7       29.98R FOG
GRAND PRAIRIE  CLOUDY    50  50 100 NE8       30.00S
ADDISON        DRIZZLE   48  48 100 E9        30.00R
MESQUITE       CLOUDY    48  46  93 N3        29.99F
LANCASTER      CLOUDY    50  46  85 NE5       30.00R
$$

TXZ091>094-102>105-117-120-121-131>134-040000-
NORTH CENTRAL TEXAS

CITY           SKY/WX    TMP DP  RH WIND       PRES   REMARKS
SHRMAN/DENISON CLOUDY    46  46 100 E8        30.02F FOG
GAINESVILLE    CLOUDY    45  44  95 E7        30.04R FOG
BOWIE          CLOUDY    46  46  97 E6        30.01R FOG
BRIDGEPORT     CLOUDY    47  47 100 NE5       30.02R FOG
DECATUR        CLOUDY    46  46 100 NE6       30.00R FOG
DENTON         MOCLDY    48  47  96 NE9       30.00R FOG
MCKINNEY       CLOUDY    48  47  96 NE9       29.99F
BONHAM         CLOUDY    45  45 100 E8        30.01F FOG
GREENVILLE       N/A     46  45  93 E9        29.97F
ROCKWALL       CLOUDY    48  47  96 E8        29.96F
TERRELL        LGT RAIN  48  45  89 NE10      29.96F
WAXAHACHIE     CLOUDY    48  48 100 NE5       29.99R FOG
CLEBURNE       CLOUDY    50  50 100 NE7       29.97S FOG
GRANBURY       CLOUDY    50  48  92 NE3       29.99F
$$

TXZ083>090-098>101-113>116-127>130-139>142-154-155-040000-
WESTERN NORTH TEXAS

CITY           SKY/WX    TMP DP  RH WIND       PRES   REMARKS
WICHITA FALLS  CLOUDY    45  44  97 E12       30.02S FOG     WCI  39
WF-KICKAPOO    CLOUDY    46  45  97 NE8       30.03F FOG
VERNON         CLOUDY    46  42  86 E7        30.03F
ABILENE        CLOUDY    46  44  93 NE7       29.97S
ABILENE-DYESS  CLOUDY    46  46 100 N10       29.95S
CISCO          CLOUDY    46  46 100 NE8       29.95F
BRECKENRIDGE   CLOUDY    49  48  98 E6        29.95F FOG
GRAHAM         CLOUDY    47  47 100 CALM      29.98S FOG
MINERAL WELLS  CLOUDY    48  47  96 NE6       29.96F
STEPHENVILLE   CLOUDY    48  46  92 NE7       29.98F
COMANCHE       CLOUDY    47  47 100 NE7       29.95F FOG
BROWNWOOD      CLOUDY    48  46  93 N6        29.94S
COLEMAN        CLOUDY    48  46  95 N8        29.95R
$$

TXZ143>147-156>162-174-175-040000-
CENTRAL TEXAS

CITY           SKY/WX    TMP DP  RH WIND       PRES   REMARKS
WACO           LGT RAIN  50  49  96 VRB5      29.96S
WACO-TSTC      LGT RAIN  50  48  93 NE5       29.97R
WACO-MCGREGOR  RAIN      50  48  93 NE5       29.96F
HILLSBORO      CLOUDY    50  49  95 NE7       29.95F
CORSICANA      LGT RAIN  51  49  92 N5        29.98R
MEXIA          LGT RAIN  49  47  94 E8        29.91F
HEARNE         LGT RAIN  50  49  97 CALM      29.95R
CAMERON        RAIN      51  49  96 E5        29.94R
TEMPLE         LGT RAIN  50  48  93 NE8       29.93F
KILLEEN        RAIN      49  49  98 NE10      29.91R FOG
KILLEEN-SKYLRK LGT RAIN  50  48  93 NE9       29.92F
FORT HOOD      LGT RAIN  48  48 100 N9        29.91F FOG
GATESVILLE     CLOUDY    48  48 100 NE5       30.00R
HAMILTON       CLOUDY    49  49 100 NE5       29.95S FOG
LAMPASAS       DRIZZLE   50  49  97 NE6       29.90F
$$

TXZ095>097-106>112-122>126-135>138-148>153-164>167-040000-
EAST TEXAS

CITY           SKY/WX    TMP DP  RH WIND       PRES   REMARKS
PARIS          CLOUDY    45  43  93 E14       30.02F WCI  38
SULPHUR SPRNGS DRIZZLE   47  47  97 E13       30.00F
MOUNT PLEASANT CLOUDY    47  47 100 E12G17    30.02F
GILMER         LGT RAIN  47  46  97 NE5       30.00S
MINEOLA        DRIZZLE   48  46  93 NE7       29.98F
TYLER          LGT RAIN  49  48  97 NE7       29.98R FOG
LONGVIEW       CLOUDY    49  49 100 NE8       29.98R
MARSHALL       CLOUDY    46  44  92 E3        30.01S
ATHENS         LGT RAIN  46  46 100 E7        29.94F
PALESTINE      FLURRIES  50  49  98 NE8       29.96F
JACKSONVILLE   DRIZZLE   48  48 100 NE7       29.97S
HENDERSON      LGT RAIN  48  48 100 NE5       29.99R
CENTER         CLOUDY    50  48  93 NE6       29.98R
NACOGDOCHES    CLOUDY    48  46  93 CALM      29.93S
LUFKIN         LGT RAIN  49  48  97 N5        29.93R
$$

SUPPLEMENTAL OBSERVATIONS (CENTRAL)

CITY           SKY/WX    TMP DP  RH WIND       PRES   REMARKS
DENISON DAM      N/A     45  41  87 NE7         N/A
CADDO GRASSLND   N/A     46  43  87 E6          N/A
PAT MAYSE LAKE   N/A     45  43  93 NE6         N/A
GREENVILLE       N/A     46  43  87 E13         N/A
CEDAR HILL       N/A     48  46  93 NE5         N/A
ATHENS           N/A     48  45  87 E8G17       N/A
LAKE LIMESTONE   N/A     48  45  87 NE9         N/A
MCGREGOR         N/A     50  48  93 NE6G14      N/A
TEMPLE           N/A     50  48  93 NE8         N/A
$$

SUPPLEMENTAL OBSERVATIONS (WEST)

CITY           SKY/WX    TMP DP  RH WIND       PRES   REMARKS
MILLERS CREEK    N/A     45  43  93 NE6         N/A
POSSUM KINGDOM   N/A     46  45  93 NE6         N/A
LBJ GRASSLAND    N/A     46  45  93 CALM        N/A
GRANBURY         N/A     48  45  87 NE6         N/A
COMANCHE         N/A     46  45  93 E8          N/A
HAMBY            N/A     46  45  93 N7          N/A
IVIE RESERVOIR   N/A     48  45  87 NE8         N/A
COLORADO BEND    N/A     48  45  87 E7          N/A
$$

SUPPLEMENTAL OBSERVATIONS (EAST)

CITY           SKY/WX    TMP DP  RH WIND       PRES   REMARKS
CLARKSVILLE      N/A     46  43  87 E7          N/A
TEXARKANA        N/A     46  45  93 E6          N/A
LINDEN           N/A     46  43  87 E5G14       N/A
CADDO LAKE       N/A     46  45  93 NE2         N/A
GILMER           N/A     48  45  87 E6          N/A
HENDERSON        N/A     48  45  87 NE6         N/A
LUFKIN           N/A     50  46  87 MISG        N/A
N SABINE NF      N/A     48  46  93 MISG        N/A
S SABINE NF      N/A     48  45  87 NE7G15      N/A
$$

SUPPLEMENTAL OBSERVATIONS ARE A COLLECTION OF AUTOMATED INSTRUMENTS
THAT ARE MAINTAINED BY A VARIETY OF FEDERAL AND STATE AGENCIES.
CERTAIN ELEMENTS...SUCH AS HUMIDITY VALUES AND SUSTAINED WIND
SPEEDS...MAY BE APPROXIMATED.





USA.gov is the U.S. government's official web portal to all federal, state and local government web resources and services.